Regional Weather Roundup
Issued by NWS Charleston, SC

Current Version | Previous Version | Graphics & Text | Print | Product List | Glossary On
Versions: 1 2 3 4 5 6 7 8 9 10 11 12 13 14 15 16 17 18 19 20 21 22 23 24 25 26 27 28 29 30 31 32 33 34 35 36 37 38 39 40 41 42 43 44 45 46 47 48 49 50
000 ASUS42 KCHS 241912 RWRCHS Regional Weather Roundup National Weather Service Charleston SC 300 PM EDT THU MAY 24 2018 NOTE: "fair" indicates few or no clouds below 12,000 feet with no significant weather and/or obstructions to visibility. Not all stations are quality controlled. Use data with caution, especially dewpoint observations. SCZ027-030-031-034>040-042>050-242000- ...Southeast South Carolina... CITY SKY/WX TMP DP RH WIND PRES REMARKS N Charleston LGT RAIN 75 72 90 NE5 30.08F Waterfront Prk N/A 77 74 91 E6 29.93F Mount Pleasant FAIR 73 73 100 CALM 30.09F Johns Island MOCLDY 79 73 83 SE7 30.08F Pinopolis N/A 77 70 78 S5 30.03F Moncks Corner FAIR 73 68 83 SE3 30.10R Summerville FAIR 75 72 88 E5 30.09F Beaufort MCAS TSTM 76 75 97 SE6 30.06F FOG Beaufort Arpt MOCLDY 79 72 78 SE7 30.06F THUNDER Hilton Head Is MOSUNNY 79 73 83 S7G16 30.09R Walterboro TSTM 72 70 94 NE7 30.08S VSB 1/4 Allendale FAIR 86 70 58 CALM 30.04F HX 90 ...Southern Midlands and Pee Dee... CITY SKY/WX TMP DP RH WIND PRES REMARKS Georgetown MOCLDY 77 77 100 SE6 30.11S Kingstree FAIR 81 73 78 E9 30.09S Orangeburg TSTM 74 71 91 SE13G25 30.07S VSB 3/4 Barnwell FAIR 79 72 78 CALM 30.06F Aiken CLOUDY 70 70 100 NE6 30.12R Manning MOCLDY 70 64 83 SE3 30.11R Columbia FAIR 79 71 76 SE10 30.07S Sumter CLOUDY 78 72 83 S8 30.06S Florence FAIR 85 70 60 NE14 30.09F Myrtle Beach FAIR 79 72 79 SE8 30.11F N Myrtle Beach FAIR 80 71 74 SE9 30.11F $$ GAZ063-065-086>088-099>101-113>116-118-119-134>141-150-242000- ...Southeast Georgia... CITY SKY/WX TMP DP RH WIND PRES REMARKS Savannah Arpt CLOUDY 81 69 67 E17 30.04F Hunter AAF PTSUNNY 85 73 67 SE14 30.02 HX 91 Fort Stewart FAIR 81 71 71 S7 30.03F Statesboro CLOUDY 83 69 62 CALM 30.05S THUNDER HAZE Sylvania MOCLDY 85 73 67 CALM 30.06F HX 91 Claxton FAIR 88 72 58 W6 30.04F HX 94 ...CSRA, Central and far Southeast Georgia... CITY SKY/WX TMP DP RH WIND PRES REMARKS Thomson FAIR 84 70 62 SW8 30.11F Augusta-Bush PTSUNNY 86 70 58 SE7 30.04F HX 90 Augusta-Daniel PTSUNNY 86 71 60 N6 30.07F HX 91 Swainsboro TSTM 73 72 94 SW5 30.09R Vidalia TSTM 73 70 88 CALM 30.09R Eastman TSTM 74 65 73 W5 30.11R Hazlehurst N/A 77 71 81 CALM 30.06S Alma PTSUNNY 83 72 69 SE8 30.04F Waycross PTSUNNY 88 68 51 S7 30.04F HX 91 Jesup MOCLDY 88 70 55 CALM 30.04F HX 92 Baxley RAIN 73 73 100 N6 30.05S Brunswick CLOUDY 82 68 61 SE5 30.07S THUNDER Saint Simons FAIR 83 74 74 SE14 30.06F $$ SCZ027-028-034-036>038-045-046-048>050-GAZ119-141-242000- ...Lake and Supplemental Coastal Observations... STATION/POSITION TIME TEMP WIND PRES WAVE SWELL AIR SEA DIR/SP/G HT/PER HT/PER/DIR (UTC) (F) (DEG/KT/KT) (MB) (FT/S) (FT/S/D) Winyah Bay 1745 79 140/ 9 1020.0 Lake Murray 1820 83 50/ 3/ 6 1017.3 ACE Basin NERRS 1745 80 150/ 3 1019.0 Fort Pulaski 1836 80 79 160/ 8/ 12 1018.6R Sapelo Island 1800 83 140/ 8 1018.0 $$ ANZ835-935-AMZ111-154-330-350-352-354-370-450-454-472-242000- ...C-MAN and Buoy Observations... STATION/POSITION TIME TEMP WIND PRES WAVE SWELL AIR SEA DIR/SP/G HT/PER HT/PER/DIR (UTC) (F) (DEG/KT/KT) (MB) (FT/S) (FT/S/D) Buoy 41004 1850 75 160/ 4/ 6 1019.4F 2/ 8 2/120/ 8 Buoy 41008 1850 77 78 160/ 10/ 12 1017.7F 2/ 8 2/100/ 8 Folly Beach CMAN 1900 77 140/ 9/ 10 1019.3F Capers Nearshore 1808 77 79 180/ 6/ 8 1020.1F Fripp Nearshore 1808 77 79 160/ 10/ 14 1018.4F STATION/POSITION TIME TEMP WIND PRES WAVE SWELL AIR SEA DIR/SP/G HT/PER HT/PER/DIR (UTC) (F) (DEG/KT/KT) (MB) (FT/S) (FT/S/D) 5E St. Marys GA 1900 78 N/A 2/ 8 Frying Pan Buoy 1850 76 78 70/ 12/ 14 1019.7F 2/ 7 2/140/ 7 Buoy 41025 1900 72 76 30/ 12/ 14 1021.0 Cape Lookout NC 1800 60/ 9/ 10 1021.2F Buoy 41002 1850 79 290/ 6/ 6 1020.2F 3/ 7 2/140/ 7 Buoy 41010 1850 79 80 120/ 8/ 10 1019.8F 3/ 8 3/100/ 8 St Augustine FL 1900 77 81 130/ 12/ 14 1018.4F $$

USA.gov is the U.S. government's official web portal to all federal, state and local government web resources and services.